This is the latest recevied weather packets stored in our database for station/object KC5DAQ-26. If no packets are shown the sender has not sent any weather packets the latest 10 day(s).
| Time | Temp. | Humidity | Pressure | Rain* | Wind** | Luminosity | Snow |
|---|---|---|---|---|---|---|---|
| 1788201220 | 32.78° C | 70% | 1018.9 hPa | 0 mm | - | 223 W/m² | - |
| 1788201158 | 32.78° C | 70% | 1018.9 hPa | 0 mm | - | 236 W/m² | - |
| 1788201100 | 33.33° C | 70% | 1018.9 hPa | 0 mm | - | 232 W/m² | - |
| 1788201041 | 33.33° C | 70% | 1018.9 hPa | 0 mm | - | 234 W/m² | - |
| 1788200979 | 32.78° C | 67% | 1019 hPa | 0 mm | - | 239 W/m² | - |
| 1788200917 | 33.33° C | 67% | 1019 hPa | 0 mm | - | 252 W/m² | - |
| 1788200858 | 33.33° C | 68% | 1018.9 hPa | 0 mm | - | 1076 W/m² | - |
| 1788200798 | 33.33° C | 68% | 1018.9 hPa | 0 mm | - | 1030 W/m² | - |
| 1788200739 | 33.33° C | 66% | 1019 hPa | 0 mm | - | 262 W/m² | - |
| 1788200678 | 33.33° C | 66% | 1019 hPa | 0 mm | - | 232 W/m² | - |
| 1788200616 | 33.33° C | 67% | 1019 hPa | 0 mm | - | 227 W/m² | - |
| 1788200554 | 33.33° C | 67% | 1019 hPa | 0 mm | - | 526 W/m² | - |
| 1788200492 | 33.33° C | 66% | 1019.1 hPa | 0 mm | - | 902 W/m² | - |
| 1788200433 | 33.33° C | 66% | 1019 hPa | 0 mm | - | 981 W/m² | - |
| 1788200372 | 33.33° C | 66% | 1019.1 hPa | 0 mm | - | 967 W/m² | - |
| 1788200312 | 33.33° C | 66% | 1019.1 hPa | 0 mm | - | 814 W/m² | - |
| 1788200251 | 33.33° C | 65% | 1019.2 hPa | 0 mm | - | 712 W/m² | - |
| 1788200191 | 33.33° C | 67% | 1019.2 hPa | 0 mm | - | 995 W/m² | - |
| 1788200131 | 33.33° C | 68% | 1019.3 hPa | 0 mm | - | 995 W/m² | - |
| 1788200068 | 33.33° C | 68% | 1019.1 hPa | 0 mm | - | 1006 W/m² | - |
| 1788200006 | 32.78° C | 68% | 1019.2 hPa | 0 mm | - | 1006 W/m² | - |
| 1788199945 | 32.78° C | 68% | 1019.2 hPa | 0 mm | - | 1018 W/m² | - |
| 1788199881 | 32.78° C | 68% | 1019.2 hPa | 0 mm | - | 1053 W/m² | - |
| 1788199820 | 32.78° C | 68% | 1019.2 hPa | 0 mm | - | 990 W/m² | - |
| 1788199758 | 32.78° C | 69% | 1019.2 hPa | 0 mm | - | 327 W/m² | - |
* Rain latest hour (hover to see other rain measurements)
** Current wind speed in m/s (hover to see current wind gust speed)